User: anonymous   Login
Location: Elk Forest
(39.5314°N, 75.8738°W)
Time: 22:14:54
(UTC-04:00)
Language:

Resurs 01 Rocket - Orbit

View from above orbital plane
View from above orbital plane
View from above satellite
View from above satellite

Ground track
Ground track

The orbit data is extracted from the following two-line orbital elements,

1 23343U 94074B   17081.75696163 -.00000002 +00000-0 +73849-5 0  9998
2 23343 098.1640 117.9328 0006786 001.8083 124.3153 14.76691687203866
Epoch (UTC): 22 March 2017 18:10:01
Eccentricity: 0.0006786
inclination: 98.1640°
perigee height: 635 km
apogee height: 644 km
right ascension of ascending node: 117.9328°
argument of perigee: 1.8083°
revolutions per day: 14.76691687
mean anomaly at epoch: 124.3153°
orbit number at epoch: 20386

The dashed part of the orbit path shows where the satellite is in the earth's shadow,  

DLR